Regional Weather Roundup
Issued by NWS

Home | Current Version | Previous Version | Graphics & Text | Print | Product List | Glossary On
Versions: 1 2 3 4 5 6 7 8 9 10 11 12 13 14 15 16 17 18 19 20 21 22 23 24 25 26 27 28 29 30 31 32 33 34 35 36 37 38 39 40 41 42 43 44 45 46 47 48 49 50
228
ASUS43 KMKX 111259
RWRWI

WISCONSIN REGIONAL WEATHER ROUNDUP
NATIONAL WEATHER SERVICE MILWAUKEE/SULLIVAN WI
700 AM CST THU FEB 11 2016

NOTE: "FAIR" INDICATES FEW OR NO CLOUDS BELOW 12,000 FEET WITH NO
SIGNIFICANT WEATHER AND/OR OBSTRUCTIONS TO VISIBILITY.

WIZ001-002-006>008-014>016-023>028-111400-
NORTHWEST WISCONSIN

CITY           SKY/WX    TMP DP  RH WIND       PRES   REMARKS
SUPERIOR ARPT  CLOUDY    -8 -14  77 W6        30.32S WCI -22
ASHLAND        CLOUDY    -4  -8  83 SW8       30.28R WCI -19
HAYWARD        CLOUDY   -20 -26  74 CALM      30.26S
SIREN          CLOUDY   -15 -20  76 CALM      30.30S
CUMBERLAND     PTCLDY   -11 -17  77 CALM      30.26R
RICE LAKE      PTCLDY   -12 -16  81 CALM      30.30R
CHETEK         PTCLDY   -14 -19  81 CALM      30.29R
LADYSMITH      CLOUDY   -18 -24  73 CALM      30.27R
EAU CLAIRE     NOT AVBL
MENOMONIE      PTCLDY    -6 -12  74 CALM      30.31S
NEW RICHMOND   CLOUDY    -9 -14  79 CALM      30.30R
OSCEOLA        CLOUDY    -7 -10  84 W5        30.34R WCI -18
$$

WIZ003>005-009-010-017-018-111400-
NORTH CENTRAL WISCONSIN

CITY           SKY/WX    TMP DP  RH WIND       PRES   REMARKS
MANITOWISH WTR FLURRIES  -2  -5  86 SW5       30.15F WCI -12
ARBOR VITAE    PTCLDY     1  -2  84 CALM      30.15S
WOODRUFF       PTCLDY     1  -2  84 CALM      30.15S
RHINELANDER    CLOUDY    -1  -6  79 W6        30.16R WCI -13
EAGLE RIVER    MOCLDY    -3  -7  82 W3        30.14R
LAND O LAKES   FLURRIES   5   1  85 W3        30.14R
PHILLIPS       CLOUDY   -10 -14  83 CALM      30.20S FOG
TOMAHAWK       CLEAR     -9 -12  83 CALM      30.19S
MEDFORD        CLOUDY   -12 -15  85 N3        30.20S
MERRILL        CLOUDY    -8 -12  84 CALM      30.22R
$$

WIZ029-030-035-036-043>047-111400-
CENTRAL WISCONSIN

CITY           SKY/WX    TMP DP  RH WIND       PRES   REMARKS
WAUSAU         CLOUDY    -3  -8  79 NW7       30.21S WCI -16
MOSINEE        NOT AVBL
MARSHFIELD     CLOUDY   -10 -16  74 NW7       30.22S WCI -25
STEVENS POINT  CLOUDY    -5  -9  84 CALM      30.25R
WAUPACA        CLEAR      0  -6  75 W3        30.27R
WAUTOMA        NOT AVBL
WISC RAPIDS    CLOUDY   -10 -15  78 SW3       30.27S
CAMP DOUGLAS   NOT AVBL
$$

WIZ011>013-019>022-031-037>040-048>050-111400-
NORTHEAST WISCONSIN

CITY           SKY/WX    TMP DP  RH WIND       PRES   REMARKS
ANTIGO         PTCLDY    -4  -8  85 NW7       30.17R WCI -18
SHAWANO        CLOUDY     1  -4  77 W7        30.25R WCI -11
OCONTO         CLEAR     -2  -6  84 W6        30.24R WCI -14
STURGEON BAY   CLEAR      1  -6  71 W6        30.23R WCI -10
GREEN BAY      CLEAR     -4  -8  83 W8        30.25R WCI -19
MANITOWOC      NOT AVBL
APPLETON       CLEAR     -2  -9  71 W9        30.23R WCI -18
CLINTONVILLE   CLEAR      0  -6  78 NW8       30.25R WCI -15
OSHKOSH        PTCLDY    -2  -8  76 W8        30.26R WCI -17
$$

WIZ032>034-041-042-053>061-111400-
SOUTHWEST WISCONSIN

CITY           SKY/WX    TMP DP  RH WIND       PRES   REMARKS
LA CROSSE      PTCLDY    -5  -9  83 CALM      30.34R
SPARTA         PTCLDY   -17 -21  80 CALM      30.32R
VIROQUA        PTCLDY    -2  -6  83 W3        30.25S
BOSCOBEL       PTCLDY    -5 -10  79 CALM      30.35R
PRAIRIE DU CHI PTCLDY     0  -6  76 CALM      30.34R
PLATTEVILLE    CLEAR      1  -4  77 N3        30.28S
$$

WIZ056-057-062-063-064-067-068-111400-
SOUTH CENTRAL WISCONSIN

CITY           SKY/WX    TMP DP  RH WIND       PRES   REMARKS
REEDSBURG      PTCLDY    -7 -11  84 CALM      30.28R
BARABOO/DELLS  PTCLDY    -7 -11  81 CALM      30.27R
LONE ROCK      NOT AVBL
MINERAL POINT  CLOUDY     3  -4  72 CALM      30.27R
MADISON        CLEAR      1  -5  75 CALM      30.29R
MIDDLETON      CLEAR      1  -5  78 W5        30.28R WCI  -9
WATERTOWN      CLEAR      1  -4  78 NW3       30.27R
MONROE         CLEAR      5   0  78 NW7       30.26R WCI  -7
JANESVILLE     CLEAR      5  -2  72 NW7       30.29R WCI  -7
$$

WIZ051-052-058>065-066-070>072-111400-
SOUTHEAST WISCONSIN

CITY           SKY/WX    TMP DP  RH WIND       PRES   REMARKS
MILWAUKEE      CLEAR      5  -4  66 NW8       30.27R WCI  -8
WAUKESHA       CLEAR      0  -6  78 W7        30.26R WCI -13
MILWAUKEE/TIMM CLEAR      3  -6  66 NW7       30.27R WCI  -9
RACINE         CLEAR      4  -5  66 NW9       30.28R WCI -10
BURLINGTON     PTCLDY     1  -5  75 NW6       30.26R WCI -11
KENOSHA        CLEAR      5  -4  66 NW7       30.26R WCI  -7
FOND DU LAC    CLEAR      1  -6  72 NW8       30.27R WCI -13
SHEBOYGAN      CLEAR      2  -6  69 NW8       30.25R WCI -12
WEST BEND      CLEAR      1  -6  71 CALM      30.24R
JUNEAU         CLEAR      0  -6  76 NW6       30.27R WCI -12
$$

LSZ147-162-111400-
LAKE SUPERIOR

STATION/POSITION TIME  TEMP    WIND        PRES    WAVE
                       AIR SEA DIR/SP/G            HT/PER
                 (UTC) (F)     (DEG/KT/KT) (MB)    (FT/S)
DEVILS ISLAND    1200    8     280/  9/ 11 1026.4F
PORT WING        1140    0     190/  6/  8 1025.4S
SAXON HARBOR     1100    6                 1024.4
$$

LMZ867-665-643>646-111400-
LAKE MICHIGAN

STATION/POSITION TIME  TEMP    WIND        PRES    WAVE
                       AIR SEA DIR/SP/G            HT/PER
                 (UTC) (F)     (DEG/KT/KT) (MB)    (FT/S)
CHAMBERS ISLAND  1100    8     300/  7/ 14 1022.4R
KEWAUNEE LAKESHO 1200    3     300/  6/  7 1022.5R
SHEBOYGAN LAKESH 1200    5     280/ 13/ 15 1025.6R
PORT WASHINGTON  1100    5     300/  8/ 11 1024.7R
MILWAUKEE LAKESH 1210    8     310/  8/ 11   N/A
KENOSHA   LAKESH 1200    7     310/ 10/ 15 1024.0R
$$

TC  - TEMPERATURE IN CELSIUS
VSB - VISIBILITY IN STATUTE MILES
WCI - WIND CHILL INDEX
HX  - HEAT INDEX





USA.gov is the U.S. government's official web portal to all federal, state and local government web resources and services.